N5CNB Weather Reports


Display with metric or nautical units.
time (UTC)temp
F
wind
direction
speed
MPH
gust
MPH
rain 1hr
in
rain 24hr
in
rain mn
in
humidity
%
barometer
mb
20260903060023 79 133 6.0 13.0 0.00 0.13 0.00 89 1014.1
20260903054533 79 131 5.0 10.0 0.02 0.13 0.00 89 1014.1
20260903053011 79 150 6.0 13.0 0.05 0.13 0.00 89 1014.1
20260903051516 79 139 2.0 9.0 0.09 0.13 0.00 90 1014.2
20260903050023 78 96 5.0 11.0 0.09 0.13 0.00 90 1014.3
20260903044528 77 129 2.0 4.0 0.07 0.11 0.11 90 1014.6
20260903043030 77 143 0.0 5.0 0.05 0.08 0.08 89 1014.9
20260903041510 77 174 0.0 5.0 0.03 0.04 0.04 88 1015.5
20260903040023 78 297 3.0 6.0 0.04 0.04 0.04 87 1015.8
20260903034523 79 347 2.0 10.0 0.04 0.04 0.04 87 1015.6
20260903033028 80 8 0.0 2.0 0.03 0.03 0.03 84 1015.4
20260903031531 83 291 0.0 2.0 0.01 0.01 0.01 81 1015.1
20260903030013 85 65 0.0 4.0 0.00 0.00 0.00 73 1015.1
20260903024516 86 75 1.0 5.0 0.00 0.00 0.00 70 1014.5
20260903023024 86 256 0.0 5.0 0.00 0.00 0.00 68 1013.8
20260903021530 86 86 0.0 7.0 0.00 0.00 0.00 65 1013.2
20260903020039 87 161 7.0 14.0 0.00 0.00 0.00 63 1012.7
20260903014515 87 166 6.0 16.0 0.00 0.00 0.00 61 1012.4
20260903013021 88 132 4.0 13.0 0.00 0.00 0.00 61 1012.1
20260903011529 89 134 7.0 14.0 0.00 0.00 0.00 59 1011.8
20260903010032 89 188 7.0 12.0 0.00 0.00 0.00 61 1011.8
20260903004534 90 148 6.0 13.0 0.00 0.00 0.00 62 1011.6
20260903003011 90 117 5.0 16.0 0.00 0.00 0.00 63 1011.4
20260903001513 92 243 7.0 14.0 0.00 0.00 0.00 60 1011.3
20260903000014 95 176 8.0 15.0 0.00 0.00 0.00 56 1011.3
20260902234506 96 165 4.0 9.0 0.00 0.00 0.00 49 1011.0
20260902233012 97 216 4.0 9.0 0.00 0.00 0.00 48 1011.3
20260902231513 95 134 3.0 7.0 0.00 0.00 0.00 50 1011.2
20260902230016 95 101 3.0 12.0 0.00 0.00 0.00 50 1011.2
20260902224516 95 124 4.0 11.0 0.00 0.00 0.00 50 1011.2
20260902223008 96 146 6.0 11.0 0.00 0.00 0.00 49 1011.2
20260902221516 97 67 3.0 10.0 0.00 0.00 0.00 47 1011.3
20260902220018 100 200 0.0 4.0 0.00 0.00 0.00 40 1011.2
20260902214517 102 221 0.0 4.0 0.00 0.00 0.00 39 1011.3
20260902213014 102 290 0.0 4.0 0.00 0.00 0.00 39 1011.5
20260902211514 100 276 4.0 9.0 0.00 0.00 0.00 42 1011.6
20260902210013 100 172 3.0 5.0 0.00 0.00 0.00 42 1011.7
20260902204534 100 154 2.0 10.0 0.00 0.00 0.00 42 1011.9
20260902203017 100 161 5.0 7.0 0.00 0.00 0.00 41 1012.0
20260902201519 100 135 3.0 9.0 0.00 0.00 0.00 41 1012.3
20260902200009 101 195 1.0 6.0 0.00 0.00 0.00 42 1012.5
20260902194515 100 312 4.0 9.0 0.00 0.00 0.00 42 1012.8
20260902193021 100 54 4.0 9.0 0.00 0.00 0.00 43 1013.0
20260902191521 100 146 3.0 8.0 0.00 0.00 0.00 45 1013.5
20260902190021 98 262 2.0 8.0 0.00 0.00 0.00 46 1013.8
20260902184515 99 226 5.0 8.0 0.00 0.00 0.00 45 1014.0
20260902183034 98 257 2.0 9.0 0.00 0.00 0.00 49 1013.9
20260902181519 96 255 3.0 14.0 0.00 0.00 0.00 49 1014.3
20260902180020 95 279 5.0 12.0 0.00 0.00 0.00 50 1014.9
20260902174525 95 265 2.0 11.0 0.00 0.00 0.00 51 1015.1
20260902173028 94 236 6.0 12.0 0.00 0.00 0.00 54 1015.3
20260902171515 93 233 6.0 13.0 0.00 0.00 0.00 54 1015.5
20260902170022 93 257 4.0 11.0 0.00 0.00 0.00 57 1015.9
20260902164527 92 308 5.0 14.0 0.00 0.00 0.00 59 1016.0
20260902163024 91 274 6.0 12.0 0.00 0.00 0.00 61 1016.0
20260902161523 91 257 5.0 11.0 0.00 0.00 0.00 64 1016.2
20260902160019 89 234 5.0 13.0 0.00 0.00 0.00 67 1016.2
20260902154528 89 354 6.0 12.0 0.00 0.00 0.00 67 1016.2
20260902153026 87 267 6.0 18.0 0.00 0.00 0.00 71 1016.1
20260902151509 86 238 7.0 17.0 0.00 0.00 0.00 73 1016.0
20260902150016 85 255 7.0 14.0 0.00 0.00 0.00 76 1016.0
20260902144520 84 292 4.0 12.0 0.00 0.00 0.00 79 1015.9
20260902143029 84 256 7.0 12.0 0.00 0.00 0.00 80 1015.9
20260902141527 83 295 5.0 10.0 0.00 0.00 0.00 83 1016.0
20260902140009 82 239 2.0 11.0 0.00 0.00 0.00 85 1016.1
20260902134516 81 251 2.0 8.0 0.00 0.00 0.00 86 1016.1
20260902133023 80 237 2.0 6.0 0.00 0.00 0.00 88 1016.0
20260902131528 78 233 1.0 5.0 0.00 0.00 0.00 89 1015.8
20260902130027 78 245 1.0 6.0 0.00 0.00 0.00 89 1015.5
20260902124513 77 252 0.0 4.0 0.00 0.00 0.00 89 1015.1
20260902123022 77 206 1.0 4.0 0.00 0.00 0.00 89 1014.8
20260902121528 77 248 0.0 2.0 0.00 0.00 0.00 89 1014.8
20260902120029 77 261 0.0 1.0 0.00 0.00 0.00 89 1014.8
20260902114530 78 259 0.0 1.0 0.00 0.00 0.00 89 1014.8
20260902113020 78 265 0.0 2.0 0.00 0.00 0.00 89 1014.7
20260902111525 78 243 0.0 4.0 0.00 0.00 0.00 89 1014.8
20260902110039 78 240 0.0 2.0 0.00 0.00 0.00 88 1014.7
20260902104550 78 261 0.0 4.0 0.00 0.00 0.00 88 1014.6
20260902103046 78 247 1.0 4.0 0.00 0.00 0.00 88 1014.6
20260902101519 78 219 0.0 1.0 0.00 0.00 0.00 88 1014.7
20260902100027 78 221 0.0 4.0 0.00 0.00 0.00 88 1014.7
20260902094528 78 215 0.0 0.0 0.00 0.00 0.00 87 1014.6
20260902093029 78 243 0.0 3.0 0.00 0.00 0.00 87 1014.4
20260902091531 78 241 2.0 4.0 0.00 0.00 0.00 87 1014.3
20260902090027 78 231 0.0 3.0 0.00 0.00 0.00 87 1014.4
20260902084535 78 245 0.0 2.0 0.00 0.00 0.00 87 1014.5
20260902083029 78 240 0.0 3.0 0.00 0.00 0.00 87 1014.4
20260902081533 78 243 1.0 4.0 0.00 0.00 0.00 87 1014.4
20260902080031 77 243 0.0 4.0 0.00 0.00 0.00 88 1014.6
20260902074526 75 223 0.0 0.0 0.00 0.00 0.00 88 1014.8
20260902073028 75 223 0.0 0.0 0.00 0.00 0.00 88 1014.8
20260902071531 75 223 0.0 0.0 0.00 0.00 0.00 87 1014.9
20260902070033 75 223 0.0 0.0 0.00 0.00 0.00 87 1015.1
20260902064533 75 223 0.0 0.0 0.00 0.00 0.00 86 1015.0
20260902063043 76 223 0.0 0.0 0.00 0.00 0.00 86 1015.1
20260902061551 76 223 0.0 0.0 0.00 0.00 0.00 86 1015.1